Volver al catálogo

CZ-2C DEB

ActivoSSO
NORAD 28482·DEBRIS·🇨🇳 China

Lanzado Nov 18, 2004 desde Xichang Satellite Launch Center

Loading…

Próximos Pases (próximas 24 horas)

TLE

ActualizadoSource: Space-Track

Época: Sep 14, 2026, 04:19 UTC

1 28482U 04046D   26257.17992354  .00001771  00000-0  42215-3 0  9993
2 28482  98.6273 347.4762 0099141 288.1084  97.1387 14.52164226141542

Sigue CZ-2C DEB en tiempo real con AllMySat

Download on the App Store